Regional Weather Roundup
Issued by NWS Midland/Odessa, TX

Skip options and go directly to product.
Home | Oldest Version | Previous Version | Current Version | All | Text Only | Save Text | Print | Product List | Glossary On

Skip product version selection by date and time.   
685
ASUS44 KMAF 271310
RWRMAF
MIDLAND AREA WEATHER ROUNDUP
NATIONAL WEATHER SERVICE MIDLAND TX
800 AM CDT FRI MAR 27 2015

...IN SOUTHWEST TEXAS AND SOUTHEAST NEW MEXICO...

CITY           SKY/WX    TMP DP  RH WIND       PRES   REMARKS
ALPINE         CLEAR     43  32  65 SW9       30.33R WCI  37
ANDREWS        FAIR      46  30  54 W10       30.20R
ARTESIA        CLEAR     37  27  65 S7        30.20S WCI  32
BIG SPRING     CLEAR     41  32  69 S6        30.23S WCI  37
CARLSBAD       CLEAR     35  29  78 NW3       30.18R
DRYDEN           N/A     46  36  68 W6        30.21S
FORT STOCKTON  CLEAR     45  33  63 SW14      30.21S WCI  38
GUAD PASS      PTCLDY    45  26  47 SW17      30.28R WCI  38
HOBBS          CLEAR     39  27  60 SW8       30.21R WCI  34
MARFA          CLEAR     28  27  93 N6        30.31R WCI  22
MIDLAND AIRPK  CLEAR     45  33  61 W7        30.21S
MIDLAND INTL   CLEAR     41  33  73 MISG      30.20S
ODESSA         CLEAR     42  32  67 SW6       30.20F WCI  38
PECOS          CLEAR     37  33  87 CALM      30.21R
PRESIDIO       FAIR      47  36  64 CALM      30.27R
SEMINOLE       CLEAR     40  28  60 W10       30.20R WCI  34
SNYDER         CLEAR     38  29  70 SW5       30.20R WCI  35
WINK           CLEAR     38  31  76 CALM      30.20R
$$
...OTHER STATIONS IN TEXAS...

CITY           SKY/WX    TMP DP  RH WIND       PRES   REMARKS
ABILENE        CLEAR     49  28  44 SW3       30.18R
AMARILLO       CLEAR     36  22  56 SW3       30.20R
AUSTIN         CLEAR     45  37  73 W5        30.19R
BROWNSVILLE    PTCLDY    53  50  89 NW7       30.23R
CORPUS CHRISTI PTCLDY    48  45  89 W6        30.21R
DALLAS FTW     MOCLDY    46  37  71 SW6       30.12R
DEL RIO        CLEAR     45  40  82 CALM      30.23R
EL PASO        PTCLDY    47  30  51 S5        30.25R
HOUSTON INT    CLEAR     48  41  76 W3        30.15R
LUBBOCK        PTCLDY    37  23  56 NW5       30.17R WCI  33
SAN ANGELO     CLEAR     43  31  62 W9        30.20R WCI  38
SAN ANTONIO    CLEAR     45  35  68 W5        30.20R
WACO           CLEAR     41  37  86 W7        30.16R WCI  36
WICHITA FALLS  NOT AVBL
$$
...OTHER LOCATIONS IN NEW MEXICO...

CITY           SKY/WX    TMP DP  RH WIND       PRES   REMARKS
ALAMAGORDO     PTCLDY    41  19  42 CALM      30.26S
ALBUQUERQUE    PTCLDY    47  19  33 W3        30.30R
CANNON AFB     CLEAR     40  25  55 NW7       30.17R WCI  35
CLOVIS         PTCLDY    34  23  64 N9        30.18R WCI  26
HOLLOMAN AFB   PTCLDY    37  21  51 CALM      30.24S
ROSWELL        PTCLDY    37  28  70 NW3       30.20R
RUIDOSO        CLEAR     39  16  38 W6        30.32R WCI  35
SANTA FE       PTCLDY    38  16  40 VRB5      30.29R WCI  34
TRUTH OR CONSE PTCLDY    44  17  33 W6        30.26R
TUCUMCARI      CLEAR     36  25  64 NW10      30.18R WCI  28
$$

USA.gov is the U.S. government's official web portal to all federal, state and local government web resources and services.